Time,TemperatureF,DewpointF,PressureIn,WindDirection,WindDirectionDegrees,WindSpeedMPH,WindSpeedGustMPH,Humidity,HourlyPrecipIn,Conditions,Clouds,dailyrainin,SoftwareType,DateUTC
2015-05-05 00:04:00,62.3,56.7,30.46,South,180,0.0,0.0,82,0.00,,,0.00,WUHU216HW,2015-05-05 04:04:00,
2015-05-05 00:09:00,62.3,56.7,30.46,South,180,0.0,0.0,82,0.00,,,0.00,WUHU216HW,2015-05-05 04:09:00,
2015-05-05 00:14:00,62.1,56.5,30.46,South,180,0.0,0.0,82,0.00,,,0.00,WUHU216HW,2015-05-05 04:14:00,
2015-05-05 00:19:00,61.9,56.7,30.46,South,180,0.0,0.0,83,0.00,,,0.00,WUHU216HW,2015-05-05 04:19:00,
2015-05-05 00:24:00,61.9,56.7,30.46,South,180,0.0,0.0,83,0.00,,,0.00,WUHU216HW,2015-05-05 04:24:00,
2015-05-05 00:29:00,61.7,56.5,30.46,South,180,0.0,0.0,83,0.00,,,0.00,WUHU216HW,2015-05-05 04:29:00,
2015-05-05 00:34:00,61.6,56.3,30.46,South,180,0.0,0.0,83,0.00,,,0.00,WUHU216HW,2015-05-05 04:34:00,
2015-05-05 00:39:00,61.4,56.2,30.46,South,180,0.0,0.0,83,0.00,,,0.00,WUHU216HW,2015-05-05 04:39:00,
2015-05-05 00:44:00,61.2,56.1,30.46,South,180,0.0,0.0,83,0.00,,,0.00,WUHU216HW,2015-05-05 04:44:00,
2015-05-05 00:49:00,61.0,55.9,30.46,South,180,0.0,0.0,83,0.00,,,0.00,WUHU216HW,2015-05-05 04:49:00,
2015-05-05 00:54:00,60.8,55.7,30.46,South,180,0.0,0.0,83,0.00,,,0.00,WUHU216HW,2015-05-05 04:54:00,
2015-05-05 00:59:00,60.7,55.5,30.46,South,180,0.0,0.0,83,0.00,,,0.00,WUHU216HW,2015-05-05 04:59:00,
2015-05-05 01:04:00,60.5,55.4,30.46,South,180,0.0,0.0,83,0.00,,,0.00,WUHU216HW,2015-05-05 05:04:00,
2015-05-05 01:09:00,60.3,55.2,30.46,South,180,0.0,0.0,83,0.00,,,0.00,WUHU216HW,2015-05-05 05:09:00,
2015-05-05 01:14:00,60.1,55.3,30.46,South,180,0.0,0.0,84,0.00,,,0.00,WUHU216HW,2015-05-05 05:14:00,
2015-05-05 01:19:00,60.1,55.3,30.46,South,180,0.0,0.0,84,0.00,,,0.00,WUHU216HW,2015-05-05 05:19:00,
2015-05-05 01:24:00,60.1,55.3,30.46,South,180,0.0,0.0,84,0.00,,,0.00,WUHU216HW,2015-05-05 05:24:00,
2015-05-05 01:29:00,59.8,54.9,30.46,South,180,0.0,0.0,84,0.00,,,0.00,WUHU216HW,2015-05-05 05:29:00,
2015-05-05 01:34:00,59.8,54.9,30.46,South,180,0.0,0.0,84,0.00,,,0.00,WUHU216HW,2015-05-05 05:34:00,
2015-05-05 01:39:00,59.4,54.9,30.46,South,180,0.0,0.0,85,0.00,,,0.00,WUHU216HW,2015-05-05 05:39:00,
2015-05-05 01:44:00,59.2,54.7,30.46,South,180,0.0,0.0,85,0.00,,,0.00,WUHU216HW,2015-05-05 05:44:00,
2015-05-05 01:49:00,59.0,54.5,30.46,South,180,0.0,0.0,85,0.00,,,0.00,WUHU216HW,2015-05-05 05:49:00,
2015-05-05 01:54:00,59.0,54.5,30.46,SW,225,0.0,0.0,85,0.00,,,0.00,WUHU216HW,2015-05-05 05:54:00,
2015-05-05 01:59:00,59.2,54.7,30.46,South,180,0.0,0.0,85,0.00,,,0.00,WUHU216HW,2015-05-05 05:59:00,
2015-05-05 02:04:00,59.2,55.1,30.46,SW,225,0.0,0.0,86,0.00,,,0.00,WUHU216HW,2015-05-05 06:04:00,
2015-05-05 02:09:00,59.6,55.7,30.46,West,270,0.0,0.0,87,0.00,,,0.00,WUHU216HW,2015-05-05 06:09:00,
2015-05-05 02:14:00,59.9,56.1,30.46,West,270,0.0,0.0,87,0.00,,,0.00,WUHU216HW,2015-05-05 06:14:00,
2015-05-05 02:19:00,60.1,56.3,30.46,West,270,0.0,0.0,87,0.00,,,0.00,WUHU216HW,2015-05-05 06:19:00,
2015-05-05 02:24:00,60.3,56.4,30.46,West,270,0.0,0.0,87,0.00,,,0.00,WUHU216HW,2015-05-05 06:24:00,
2015-05-05 02:29:00,60.3,56.4,30.46,WSW,248,0.0,0.0,87,0.00,,,0.00,WUHU216HW,2015-05-05 06:29:00,
2015-05-05 02:34:00,60.3,56.4,30.46,WSW,248,0.0,0.0,87,0.00,,,0.00,WUHU216HW,2015-05-05 06:34:00,
2015-05-05 02:39:00,60.3,56.4,30.46,WSW,248,0.0,0.0,87,0.00,,,0.00,WUHU216HW,2015-05-05 06:39:00,
2015-05-05 02:44:00,60.3,56.4,30.46,WSW,248,0.0,0.0,87,0.00,,,0.00,WUHU216HW,2015-05-05 06:44:00,
2015-05-05 02:49:00,60.3,56.4,30.46,WSW,248,0.0,0.0,87,0.00,,,0.00,WUHU216HW,2015-05-05 06:49:00,
2015-05-05 02:54:00,60.3,56.8,30.46,WSW,248,0.0,0.0,88,0.00,,,0.00,WUHU216HW,2015-05-05 06:54:00,
2015-05-05 02:59:00,60.3,56.8,30.46,WSW,248,0.0,0.0,88,0.00,,,0.00,WUHU216HW,2015-05-05 06:59:00,
2015-05-05 03:04:00,60.5,57.0,30.46,West,270,0.0,0.0,88,0.00,,,0.00,WUHU216HW,2015-05-05 07:04:00,
2015-05-05 03:09:00,60.5,57.0,30.46,West,270,0.0,0.0,88,0.00,,,0.00,WUHU216HW,2015-05-05 07:09:00,
2015-05-05 03:14:00,60.5,57.0,30.46,West,270,0.0,0.0,88,0.00,,,0.00,WUHU216HW,2015-05-05 07:14:00,
2015-05-05 03:19:00,60.5,57.0,30.46,West,270,0.0,0.0,88,0.00,,,0.00,WUHU216HW,2015-05-05 07:19:00,
2015-05-05 03:24:00,60.3,56.8,30.46,West,270,0.0,0.0,88,0.00,,,0.00,WUHU216HW,2015-05-05 07:24:00,
2015-05-05 03:29:00,60.3,56.8,30.46,West,270,0.0,0.0,88,0.00,,,0.00,WUHU216HW,2015-05-05 07:29:00,
2015-05-05 03:34:00,60.5,57.2,30.46,West,270,0.0,0.0,89,0.00,,,0.00,WUHU216HW,2015-05-05 07:34:00,
2015-05-05 03:39:00,60.5,57.2,30.46,West,270,0.0,0.0,89,0.00,,,0.00,WUHU216HW,2015-05-05 07:39:00,
2015-05-05 03:44:00,60.5,57.2,30.46,West,270,0.0,0.0,89,0.00,,,0.00,WUHU216HW,2015-05-05 07:44:00,
2015-05-05 03:49:00,60.5,57.2,30.46,WSW,248,0.0,0.0,89,0.00,,,0.00,WUHU216HW,2015-05-05 07:49:00,
2015-05-05 03:54:00,60.5,57.2,30.47,WSW,248,0.0,0.0,89,0.00,,,0.00,WUHU216HW,2015-05-05 07:54:00,
2015-05-05 03:59:00,60.5,57.2,30.47,WNW,293,0.0,0.0,89,0.00,,,0.00,WUHU216HW,2015-05-05 07:59:00,
2015-05-05 04:04:00,60.7,57.8,30.47,WNW,293,0.0,0.0,90,0.00,,,0.00,WUHU216HW,2015-05-05 08:04:00,
2015-05-05 04:09:00,60.7,57.8,30.47,WNW,293,0.0,0.0,90,0.00,,,0.00,WUHU216HW,2015-05-05 08:09:00,
2015-05-05 04:14:00,60.5,57.6,30.47,West,270,0.0,0.0,90,0.00,,,0.00,WUHU216HW,2015-05-05 08:14:00,
2015-05-05 04:19:00,60.7,57.8,30.48,NW,315,0.0,0.0,90,0.00,,,0.00,WUHU216HW,2015-05-05 08:19:00,
2015-05-05 04:24:00,60.8,58.2,30.48,NE,45,0.0,0.0,91,0.00,,,0.00,WUHU216HW,2015-05-05 08:24:00,
2015-05-05 04:29:00,60.8,58.5,30.48,East,90,0.0,0.0,92,0.00,,,0.00,WUHU216HW,2015-05-05 08:29:00,
2015-05-05 04:34:00,61.0,58.7,30.48,NNE,23,1.1,4.3,92,0.00,,,0.00,WUHU216HW,2015-05-05 08:34:00,
2015-05-05 04:39:00,60.8,58.2,30.48,NE,45,2.9,4.7,91,0.00,,,0.00,WUHU216HW,2015-05-05 08:39:00,
2015-05-05 04:44:00,60.7,57.8,30.48,ENE,68,1.6,4.7,90,0.00,,,0.00,WUHU216HW,2015-05-05 08:44:00,
2015-05-05 04:49:00,60.5,57.2,30.48,ENE,68,3.4,4.0,89,0.00,,,0.00,WUHU216HW,2015-05-05 08:49:00,
2015-05-05 04:54:00,60.3,56.8,30.48,NE,45,2.5,3.8,88,0.00,,,0.00,WUHU216HW,2015-05-05 08:54:00,
2015-05-05 04:59:00,60.1,56.3,30.48,ENE,68,2.7,4.0,87,0.00,,,0.00,WUHU216HW,2015-05-05 08:59:00,
2015-05-05 05:04:00,60.1,56.0,30.49,ENE,68,2.5,4.5,86,0.00,,,0.00,WUHU216HW,2015-05-05 09:04:00,
2015-05-05 05:09:00,60.1,55.6,30.49,NNE,23,0.7,4.5,85,0.00,,,0.00,WUHU216HW,2015-05-05 09:09:00,
2015-05-05 05:14:00,59.9,55.1,30.49,ESE,113,0.4,3.6,84,0.00,,,0.00,WUHU216HW,2015-05-05 09:14:00,
2015-05-05 05:19:00,59.8,54.6,30.49,ENE,68,0.7,3.4,83,0.00,,,0.00,WUHU216HW,2015-05-05 09:19:00,
2015-05-05 05:24:00,59.6,54.1,30.49,NE,45,3.8,4.5,82,0.00,,,0.00,WUHU216HW,2015-05-05 09:24:00,
2015-05-05 05:29:00,59.6,54.1,30.49,NE,45,0.7,4.5,82,0.00,,,0.00,WUHU216HW,2015-05-05 09:29:00,
2015-05-05 05:34:00,59.6,53.8,30.49,NE,45,2.0,3.4,81,0.00,,,0.00,WUHU216HW,2015-05-05 09:34:00,
2015-05-05 05:39:00,59.6,53.8,30.49,NE,45,2.5,3.4,81,0.00,,,0.00,WUHU216HW,2015-05-05 09:39:00,
2015-05-05 05:44:00,59.6,53.8,30.50,ENE,68,2.5,2.5,81,0.00,,,0.00,WUHU216HW,2015-05-05 09:44:00,
2015-05-05 05:49:00,59.6,54.1,30.49,NE,45,3.4,3.4,82,0.00,,,0.00,WUHU216HW,2015-05-05 09:49:00,
2015-05-05 05:54:00,59.4,53.9,30.49,NE,45,4.3,4.3,82,0.00,,,0.00,WUHU216HW,2015-05-05 09:54:00,
2015-05-05 05:59:00,59.4,54.3,30.49,ENE,68,3.1,4.3,83,0.00,,,0.00,WUHU216HW,2015-05-05 09:59:00,
2015-05-05 06:04:00,59.4,54.3,30.50,NE,45,3.6,5.1,83,0.00,,,0.00,WUHU216HW,2015-05-05 10:04:00,
2015-05-05 06:09:00,59.2,54.1,30.50,NE,45,3.4,5.1,83,0.00,,,0.00,WUHU216HW,2015-05-05 10:09:00,
2015-05-05 06:14:00,59.2,54.4,30.51,NE,45,2.7,4.0,84,0.00,,,0.00,WUHU216HW,2015-05-05 10:14:00,
2015-05-05 06:19:00,59.0,54.2,30.51,East,90,0.4,4.0,84,0.00,,,0.00,WUHU216HW,2015-05-05 10:19:00,
2015-05-05 06:24:00,59.0,53.9,30.51,WNW,293,0.0,1.3,83,0.00,,,0.00,WUHU216HW,2015-05-05 10:24:00,
2015-05-05 06:29:00,59.0,54.2,30.52,East,90,0.2,0.9,84,0.00,,,0.00,WUHU216HW,2015-05-05 10:29:00,
2015-05-05 06:34:00,59.0,54.5,30.52,ENE,68,1.8,1.8,85,0.00,,,0.00,WUHU216HW,2015-05-05 10:34:00,
2015-05-05 06:39:00,59.0,54.5,30.52,ENE,68,1.1,1.8,85,0.00,,,0.00,WUHU216HW,2015-05-05 10:39:00,
2015-05-05 06:44:00,59.0,55.2,30.52,ENE,68,0.9,1.8,87,0.00,,,0.00,WUHU216HW,2015-05-05 10:44:00,
2015-05-05 06:49:00,59.0,55.5,30.52,ENE,68,5.1,5.1,88,0.00,,,0.00,WUHU216HW,2015-05-05 10:49:00,
2015-05-05 06:54:00,59.0,55.8,30.52,ENE,68,4.7,5.1,89,0.00,,,0.00,WUHU216HW,2015-05-05 10:54:00,
2015-05-05 06:59:00,58.9,55.0,30.52,ENE,68,5.8,5.8,87,0.00,,,0.00,WUHU216HW,2015-05-05 10:59:00,
2015-05-05 07:04:00,58.7,53.8,30.53,ESE,113,8.5,8.5,84,0.00,,,0.00,WUHU216HW,2015-05-05 11:04:00,
2015-05-05 07:09:00,58.7,53.6,30.53,ENE,68,4.9,8.5,83,0.00,,,0.00,WUHU216HW,2015-05-05 11:09:00,
2015-05-05 07:14:00,58.7,52.9,30.53,ENE,68,3.6,5.6,81,0.00,,,0.00,WUHU216HW,2015-05-05 11:14:00,
2015-05-05 07:19:00,58.7,52.2,30.53,ENE,68,6.0,6.0,79,0.00,,,0.00,WUHU216HW,2015-05-05 11:19:00,
2015-05-05 07:24:00,58.7,51.1,30.54,ENE,68,5.6,6.7,76,0.00,,,0.00,WUHU216HW,2015-05-05 11:24:00,
2015-05-05 07:29:00,58.7,51.1,30.53,ENE,68,5.6,7.2,76,0.00,,,0.00,WUHU216HW,2015-05-05 11:29:00,
2015-05-05 07:34:00,58.7,50.8,30.54,ENE,68,7.2,7.2,75,0.00,,,0.00,WUHU216HW,2015-05-05 11:34:00,
2015-05-05 07:39:00,58.9,50.6,30.53,NE,45,4.7,7.2,74,0.00,,,0.00,WUHU216HW,2015-05-05 11:39:00,
2015-05-05 07:44:00,59.0,50.4,30.54,ENE,68,4.7,6.5,73,0.00,,,0.00,WUHU216HW,2015-05-05 11:44:00,
2015-05-05 07:49:00,58.9,49.9,30.54,ENE,68,4.0,7.6,72,0.00,,,0.00,WUHU216HW,2015-05-05 11:49:00,
2015-05-05 07:54:00,58.7,48.5,30.55,East,90,6.3,8.1,69,0.00,,,0.00,WUHU216HW,2015-05-05 11:54:00,
2015-05-05 07:59:00,58.7,48.2,30.54,ENE,68,5.8,8.1,68,0.00,,,0.00,WUHU216HW,2015-05-05 11:59:00,
2015-05-05 08:04:00,58.5,48.3,30.54,NE,45,4.5,7.4,69,0.00,,,0.00,WUHU216HW,2015-05-05 12:04:00,
2015-05-05 08:09:00,58.7,48.2,30.54,ENE,68,3.4,7.4,68,0.00,,,0.00,WUHU216HW,2015-05-05 12:09:00,
2015-05-05 08:14:00,58.5,47.2,30.54,ENE,68,6.3,6.3,66,0.00,,,0.00,WUHU216HW,2015-05-05 12:14:00,
2015-05-05 08:19:00,58.3,46.5,30.55,ENE,68,4.5,6.3,65,0.00,,,0.00,WUHU216HW,2015-05-05 12:19:00,
2015-05-05 08:24:00,58.3,45.7,30.55,NE,45,4.5,6.9,63,0.00,,,0.00,WUHU216HW,2015-05-05 12:24:00,
2015-05-05 08:29:00,58.3,45.7,30.55,ENE,68,3.4,6.9,63,0.00,,,0.00,WUHU216HW,2015-05-05 12:29:00,
2015-05-05 08:34:00,58.1,45.2,30.55,NNE,23,3.4,5.4,62,0.00,,,0.00,WUHU216HW,2015-05-05 12:34:00,
2015-05-05 08:39:00,58.0,44.7,30.55,NE,45,3.4,5.4,61,0.00,,,0.00,WUHU216HW,2015-05-05 12:39:00,
2015-05-05 08:44:00,58.0,45.0,30.55,NE,45,4.3,5.8,62,0.00,,,0.00,WUHU216HW,2015-05-05 12:44:00,
2015-05-05 08:49:00,58.1,46.4,30.55,East,90,4.0,5.8,65,0.00,,,0.00,WUHU216HW,2015-05-05 12:49:00,
2015-05-05 08:54:00,58.0,45.5,30.54,NE,45,6.9,6.9,63,0.00,,,0.00,WUHU216HW,2015-05-05 12:54:00,
2015-05-05 08:59:00,58.1,45.6,30.54,ENE,68,3.4,6.9,63,0.00,,,0.00,WUHU216HW,2015-05-05 12:59:00,
2015-05-05 09:04:00,58.0,45.0,30.54,NNE,23,1.8,6.5,62,0.00,,,0.00,WUHU216HW,2015-05-05 13:04:00,
2015-05-05 09:09:00,58.0,44.2,30.55,ENE,68,3.8,4.7,60,0.00,,,0.00,WUHU216HW,2015-05-05 13:09:00,
2015-05-05 09:14:00,58.1,43.5,30.55,East,90,1.3,4.7,58,0.00,,,0.00,WUHU216HW,2015-05-05 13:14:00,
2015-05-05 09:19:00,58.1,43.5,30.55,ENE,68,2.5,4.7,58,0.00,,,0.00,WUHU216HW,2015-05-05 13:19:00,
2015-05-05 09:24:00,58.1,43.5,30.55,NE,45,3.4,4.0,58,0.00,,,0.00,WUHU216HW,2015-05-05 13:24:00,
2015-05-05 09:29:00,58.1,43.5,30.55,ENE,68,4.3,4.9,58,0.00,,,0.00,WUHU216HW,2015-05-05 13:29:00,
2015-05-05 09:34:00,58.0,43.3,30.55,ENE,68,4.3,7.6,58,0.00,,,0.00,WUHU216HW,2015-05-05 13:34:00,
2015-05-05 09:39:00,58.0,43.7,30.55,NE,45,7.6,10.1,59,0.00,,,0.00,WUHU216HW,2015-05-05 13:39:00,
2015-05-05 09:44:00,57.6,43.9,30.55,ENE,68,4.7,10.1,60,0.00,,,0.00,WUHU216HW,2015-05-05 13:44:00,
2015-05-05 09:49:00,57.6,44.6,30.55,East,90,4.0,6.7,62,0.00,,,0.00,WUHU216HW,2015-05-05 13:49:00,
2015-05-05 09:54:00,57.2,44.4,30.55,NE,45,2.9,6.7,62,0.00,,,0.00,WUHU216HW,2015-05-05 13:54:00,
2015-05-05 09:59:00,57.2,45.2,30.56,ENE,68,1.8,3.1,64,0.00,,,0.00,WUHU216HW,2015-05-05 13:59:00,
2015-05-05 10:04:00,57.2,45.5,30.56,ENE,68,1.8,3.1,65,0.00,,,0.00,WUHU216HW,2015-05-05 14:04:00,
2015-05-05 10:09:00,57.2,44.7,30.55,NE,45,0.7,3.4,63,0.00,,,0.00,WUHU216HW,2015-05-05 14:09:00,
2015-05-05 10:14:00,57.1,45.0,30.56,SE,135,1.6,3.4,64,0.00,,,0.00,WUHU216HW,2015-05-05 14:14:00,
2015-05-05 10:19:00,57.1,45.0,30.55,ENE,68,3.8,3.8,64,0.00,,,0.00,WUHU216HW,2015-05-05 14:19:00,
2015-05-05 10:24:00,57.1,45.4,30.55,NE,45,3.4,3.8,65,0.00,,,0.00,WUHU216HW,2015-05-05 14:24:00,
2015-05-05 10:29:00,56.9,45.6,30.56,NE,45,1.8,3.6,66,0.00,,,0.00,WUHU216HW,2015-05-05 14:29:00,
2015-05-05 10:34:00,56.7,45.5,30.56,East,90,0.7,3.6,66,0.00,,,0.00,WUHU216HW,2015-05-05 14:34:00,
2015-05-05 10:39:00,56.5,45.3,30.56,ENE,68,1.6,2.5,66,0.00,,,0.00,WUHU216HW,2015-05-05 14:39:00,
2015-05-05 10:44:00,56.5,46.1,30.56,ENE,68,1.1,2.5,68,0.00,,,0.00,WUHU216HW,2015-05-05 14:44:00,
2015-05-05 10:49:00,56.3,46.3,30.55,NE,45,2.0,2.5,69,0.00,,,0.00,WUHU216HW,2015-05-05 14:49:00,